Regional Weather Roundup
Issued by NWS

Home | Current Version | Previous Version | Graphics & Text | Print | Product List | Glossary On
Versions: 1 2 3 4 5 6 7 8 9 10 11 12 13 14 15 16 17 18 19 20 21 22 23 24 25 26 27 28 29 30 31 32 33 34 35 36 37 38 39 40 41 42 43 44 45 46 47 48 49 50
000
ASUS43 KIND 260859
RWRIN

WEATHER ROUNDUP FOR INDIANA
NATIONAL WEATHER SERVICE INDIANAPOLIS IN
500 AM EDT TUE MAY 26 2015

NOTE: "FAIR" INDICATES FEW OR NO CLOUDS BELOW 12,000 FEET WITH NO
SIGNIFICANT WEATHER AND/OR OBSTRUCTIONS TO VISIBILITY.

* - STATION DOES NOT REPORT WEATHER SUCH AS PRECIPITATION OR FOG.

+ - STATION NOT QUALITY CONTROLLED BY THE NATIONAL WEATHER SERVICE.
    USE DATA WITH CAUTION...ESPECIALLY DEWPOINT AND RELATIVE
    HUMIDITY OBSERVATIONS.

INZ001>003-010>013-019-020-261000-
NORTHWEST INDIANA

CITY           SKY/WX    TMP DP  RH WIND       PRES   REMARKS
RENSSELAER +   PTCLDY    64  64 100 S10       29.98S FOG
VALPARAISO     MOCLDY    66  64  94 S9        29.98R

$$

LMZ046-743>745-261000-
SOUTHERN LAKE MICHIGAN

STATION/POSITION TIME  TEMP    WIND        PRES    WAVE
                       AIR SEA DIR/SP/G            HT
                 (UTC) (F)     (DEG/KT/KT) (MB)    (FT)
BURNS HARBOR     0800   67     180/  9/ 11 1014.9S
MICHIGAN CITY    0800   67     150/ 10/ 14   N/A
5NW MICH CITY    0800   60 52  170/  6/  8   N/A     1

$$

INZ004-005-014>016-021>024-261000-
NORTH CENTRAL INDIANA

CITY           SKY/WX    TMP DP  RH WIND       PRES   REMARKS
GOSHEN         MOCLDY    65  63  93 S8        30.01S
SOUTH BEND     MOCLDY    67  64  90 S6        29.99S
WARSAW +       PTCLDY    63  63 100 S3        30.02S

$$

INZ006>009-017-018-025>027-261000-
NORTHEAST INDIANA

CITY           SKY/WX    TMP DP  RH WIND       PRES   REMARKS
ANGOLA *+      PTCLDY    64  63  94 S6        30.03R
FORT WAYNE     PTCLDY    63  61  93 S8        30.05R

$$

INZ028-029-035-036-043>045-051>053-261000-
WEST CENTRAL INDIANA

CITY           SKY/WX    TMP DP  RH WIND       PRES   REMARKS
CRAWFORDSVL +  CLOUDY    64  60  87 S9        30.02S
GREENCASTLE +  CLOUDY    64  61  88 S9        30.03S FOG
LAFAYETTE      CLOUDY    65  63  93 S5        30.00R
TERRE HAUTE    CLOUDY    68  66  93 S12       30.02R

$$

INZ030>032-037>040-046>048-054>057-064-065-261000-
CENTRAL INDIANA

CITY           SKY/WX    TMP DP  RH WIND       PRES   REMARKS
GREENWOOD *+   CLOUDY    66  63  88 S7        30.06R
INDIANAPOLIS   CLOUDY    67  63  87 S8        30.03R
-EAGLE CREEK   CLOUDY    66  64  93 S7        30.04R
KOKOMO *+      PTCLDY    64  63  94 S10       30.02S
MT COMFORT *+  CLOUDY    66 N/A N/A S13       30.06R
SHELBYVILLE    CLOUDY    69  65  86 S12       30.06R

$$

INZ033-034-041-042-049-050-058-059-261000-
EAST CENTRAL INDIANA

CITY           SKY/WX    TMP DP  RH WIND       PRES   REMARKS
MUNCIE         PTCLDY    66  63  90 S8        30.05R

$$

INZ060-061-067>069-081>083-085>088-261000-
SOUTHWEST INDIANA

CITY           SKY/WX    TMP DP  RH WIND       PRES   REMARKS
EVANSVILLE     CLOUDY    70  65  84 S8        30.03F
HUNTINGBURG *+ CLOUDY    68  63  83 S8        30.05S

$$

INZ062-063-066-070>080-084-089>092-261000-
SOUTH CENTRAL AND SOUTHEAST INDIANA

CITY           SKY/WX    TMP DP  RH WIND       PRES   REMARKS
BLOOMINGTON    CLOUDY    67  65  93 S6        30.04F
MADISON *+     PTCLDY    64  63  94 SE7       30.10F
SEYMOUR +      MOCLDY    68  64  88 SE7       30.06S

$$



USA.gov is the U.S. government's official web portal to all federal, state and local government web resources and services.